Location: �perlecques
(50.8057°N, 2.1521°E)
Time: 06:33:43
(UTC+00:00)

Vanguard 1 Rocket - Pass Details

Date: 03 August 2021
Orbit: 650 x 4226 km, 34.3° (Epoch: 22 September)

Event Time Altitude Azimuth Distance (km) Brightness Sun altitude
Rises 06:46:28 0° 195° (SSW) 8,454 12.2 21.1°
Reaches altitude 10° 06:55:24 10° 181° (S) 7,227 12.0 22.5°
Maximum altitude 07:09:07 19° 146° (SE) 5,661 12.1 24.6°
Drops below altitude 10° 07:19:38 10° 108° (ESE) 5,464 13.0 26.3°
Sets 07:24:45 0° 93° (E) 5,890 12.8 27.1°
